Tracking 19279 objects as of 14-Nov-2018
HD Live streaming from Space Station
objects crossing your sky now

SAUDISAT 3

Track SAUDISAT 3 now!
10-day predictions
SAUDISAT 3 is classified as:


NORAD ID: 31118
Int'l Code: 2007-012B
Perigee: 659.7 km
Apogee: 682.4 km
Inclination: 97.8 °
Period: 98.0 minutes
Semi major axis: 7042 km
RCS: 0.633 m2 (medium)
Launch date: April 17, 2007
Source: Saudi Arabia (SAUD)
Launch site: TYURATAM MISSILE AND SPACE COMPLEX (TTMTR)
aabbcc
Your satellite tracking list
Your tracking list is empty




NASA's NSSDC Master Catalog

Two Line Element Set (TLE):
1 31118U 07012B   18317.92212166  .00000004  00000-0  85384-5 0  9990
2 31118  97.7844 290.4204 0016154  63.1715 297.1146 14.69114940620586
Source of the keplerian elements: AFSPC